Location: Champs
(48.8539°N, 2.6040°E)
Time: 23:53:57
(UTC+00:00)

Cosmos 1953 - Pass Details

Date: 04 June 2022
Orbit: 533 x 555 km, 82.5° (Epoch: 01 July)

Event Time Altitude Azimuth Distance (km) Brightness Sun altitude
Rises 00:26:18 0° 334° (NNW) 2,715 6.8 -18.2°
Reaches altitude 10° 00:29:06 10° 314° (NW) 1,811 5.4 -18.1°
Maximum altitude 00:31:35 16° 275° (W) 1,450 4.4 -18.1°
Enters shadow 00:32:33 15° 257° (WSW) 1,506 4.3 -18.0°
